Weather in Beregovoe

Russia / Republic of Crimea     45°05′39″N   35°26′11″E
temp.,
°C
wind,
m/s
gust,
m/s
humid.,
%
clouds,
%
prec.,
mm/h
press.,
hPa
HPBL,
m
4 march, thu
thu400:00+6wnw56630 0.0 1028336
03:00+6nw45640 0.0 1027258
06:00+6w23580 0.0 1026240
09:00+7wsw36600 0.0 1026711
12:00+7ssw78679 0.0 10251046
15:00+8ssw99715 0.0 1023882
18:00+7sw1011710 0.0 1021757
21:00+7sw1112743 0.0 1021765
5 march, fri
fri500:00+7sw11137733 0.0 1019743
03:00+7sw11137817 0.0 1019667
06:00+7ssw1013800 0.0 1018585
09:00+8ssw1113790 0.0 1017617
12:00+8ssw1114780 0.0 1016604
15:00+9ssw1114760 0.0 1015569
18:00+9ssw1013830 0.0 1014480
21:00+9sw10148414 0.0 1016418
6 march, sat
sat600:00+9sw71189100 0.0 1016325
03:00+9wsw579081 0.0 1016204
06:00+8nw2383100 0.0 101655
09:00+7nnw5784100 0.0 1017378
12:00+7n7885100 0.0 1018525
15:00+3n111394100 0.1 1019622
18:00+3nnw91269100 0.3 10211056
21:00+4nnw111265100 0.3 10241433
7 march, sun
sun700:00+3nnw10125256 0.0 10261538
03:00+2nnw9115528 0.0 10271485
06:00+1nnw810540 0.0 10281289
09:00+1nw66480 0.0 10291094
12:00+2wnw35370 0.0 10281399
15:00+4sw66454 0.0 10261534
18:00+4sw775756 0.0 10241306
21:00+3wsw455677 0.0 10241186
8 march, mon
mon800:00+3wnw445271 0.0 1023386
03:00+4sw665635 0.0 1021784
06:00+4sw45510 0.0 1020786
09:00+5sw56490 0.0 1020837
12:00+5sw66523 0.0 1019849
15:00+6sw886042 0.0 10181142
18:00+7wsw786999 0.1 10171239
21:00+6w456896 0.3 1018714